N0JVW-13 Weather Reports


time (UTC)temp
C
wind
direction
speed
KPH
gust
KPH
rain 1hr
cm
rain 24hr
cm
rain mn
cm
humidity
%
barometer
mb
20260503185005 24 265 0.0 4.8 0.00 0.00 0.00 41 1010.6
20260503184604 24 264 1.6 6.4 0.00 0.00 0.00 42 1010.7
20260503184022 24 283 0.0 6.4 0.00 0.00 0.00 44 1010.8
20260503183603 24 331 1.6 6.4 0.00 0.00 0.00 41 1010.8
20260503183045 24 283 0.0 4.8 0.00 0.00 0.00 42 1010.8
20260503182515 23 269 0.0 6.4 0.00 0.00 0.00 41 1010.8
20260503182056 23 254 0.0 6.4 0.00 0.00 0.00 45 1010.9
20260503181533 23 333 0.0 11.3 0.00 0.00 0.00 45 1011.0
20260503181008 23 327 3.2 11.3 0.00 0.00 0.00 43 1011.1
20260503180549 23 134 0.0 6.4 0.00 0.00 0.00 46 1011.2
20260503180030 23 306 0.0 6.4 0.00 0.00 0.00 45 1011.2
20260503175606 23 302 1.6 8.0 0.00 0.00 0.00 45 1011.3
20260503175040 23 248 3.2 8.0 0.00 0.00 0.00 44 1011.4
20260503174522 23 238 0.0 3.2 0.00 0.00 0.00 47 1011.4
20260503174059 22 333 0.0 4.8 0.00 0.00 0.00 48 1011.5
20260503173535 22 221 0.0 6.4 0.00 0.00 0.00 49 1011.8
20260503173013 22 323 0.0 6.4 0.00 0.00 0.00 47 1011.8
20260503172550 22 172 0.0 4.8 0.00 0.00 0.00 48 1011.9
20260503172028 22 148 0.0 9.7 0.00 0.00 0.00 51 1012.0
20260503171508 22 152 0.0 9.7 0.00 0.00 0.00 50 1012.0
20260503171044 21 195 1.6 8.0 0.00 0.00 0.00 51 1012.1
20260503170520 21 252 1.6 6.4 0.00 0.00 0.00 49 1012.4
20260503150535 17 154 1.6 9.7 0.00 0.00 0.00 54 1013.6
20260503131057 11 169 0.0 11.3 0.00 0.00 0.00 62 1014.5
20260503130533 11 146 0.0 6.4 0.00 0.00 0.00 63 1014.6
20260503110537 8 141 0.0 4.8 0.00 0.00 0.00 69 1014.8
20260503081604 8 157 1.6 4.8 0.00 0.00 0.00 69 1016.1
20260503081038 8 160 0.0 4.8 0.00 0.00 0.00 69 1016.1
20260503080516 8 150 0.0 3.2 0.00 0.00 0.00 69 1016.2
20260503072519 8 143 0.0 3.2 0.00 0.00 0.00 68 1016.6
20260503072057 9 148 0.0 3.2 0.00 0.00 0.00 68 1016.6
20260503071556 9 120 0.0 1.6 0.00 0.00 0.00 68 1016.6
20260503071008 9 155 0.0 3.2 0.00 0.00 0.00 67 1016.6
20260503070549 9 155 0.0 3.2 0.00 0.00 0.00 67 1016.7
20260503060126 9 146 0.0 1.6 0.00 0.00 0.00 68 1017.1
20260503055012 9 147 0.0 1.6 0.00 0.00 0.00 69 1017.2
20260503054559 9 147 0.0 1.6 0.00 0.00 0.00 69 1017.3
20260503054028 9 306 0.0 1.6 0.00 0.00 0.00 69 1017.4
20260503053504 9 312 0.0 0.0 0.00 0.00 0.00 69 1017.5
20260503053046 9 312 0.0 0.0 0.00 0.00 0.00 70 1017.5
20260503052522 9 312 0.0 0.0 0.00 0.00 0.00 70 1017.5
20260503052102 9 312 0.0 0.0 0.00 0.00 0.00 70 1017.6
20260503051546 9 312 0.0 0.0 0.00 0.00 0.00 69 1017.7
20260503051017 9 312 0.0 0.0 0.00 0.00 0.00 69 1017.7
20260503050554 9 312 0.0 0.0 0.00 0.00 0.00 70 1017.8
20260503050032 9 312 0.0 0.0 0.00 0.00 0.00 69 1017.8
20260503045508 9 312 0.0 0.0 0.00 0.00 0.00 69 1017.9
20260503045049 9 312 0.0 0.0 0.00 0.00 0.00 69 1017.8
20260503044525 9 312 0.0 0.0 0.00 0.00 0.00 69 1017.9
20260503044106 9 312 0.0 0.0 0.00 0.00 0.00 69 1018.0
20260503043541 9 312 0.0 0.0 0.00 0.00 0.00 68 1017.9
20260503043022 9 312 0.0 0.0 0.00 0.00 0.00 68 1018.0
20260503042558 9 312 0.0 0.0 0.00 0.00 0.00 68 1018.1
20260503042034 9 312 0.0 0.0 0.00 0.00 0.00 67 1018.1
20260503041514 9 312 0.0 0.0 0.00 0.00 0.00 66 1018.2
20260503041052 10 312 0.0 0.0 0.00 0.00 0.00 65 1018.2
20260503040530 10 312 0.0 0.0 0.00 0.00 0.00 64 1018.2
20260503040002 10 312 0.0 0.0 0.00 0.00 0.00 64 1018.3
20260503035542 10 312 0.0 0.0 0.00 0.00 0.00 64 1018.3
20260503035018 10 312 0.0 0.0 0.00 0.00 0.00 63 1018.2
20260503034600 10 312 0.0 0.0 0.00 0.00 0.00 62 1018.3
20260503034036 10 312 0.0 0.0 0.00 0.00 0.00 61 1018.4
20260503033512 10 312 0.0 0.0 0.00 0.00 0.00 60 1018.5
20260503033059 10 312 0.0 0.0 0.00 0.00 0.00 59 1018.5
20260503032528 10 312 0.0 0.0 0.00 0.00 0.00 59 1018.5
20260503032005 10 312 0.0 0.0 0.00 0.00 0.00 59 1018.5
20260503031546 10 312 0.0 0.0 0.00 0.00 0.00 59 1018.5
20260503031023 10 312 0.0 0.0 0.00 0.00 0.00 57 1018.5
20260503030605 10 312 0.0 0.0 0.00 0.00 0.00 57 1018.5
20260503030040 10 312 0.0 0.0 0.00 0.00 0.00 55 1018.5
20260503025516 11 312 0.0 0.0 0.00 0.00 0.00 55 1018.5
20260503025059 11 312 0.0 0.0 0.00 0.00 0.00 54 1018.6
20260503024548 11 312 0.0 0.0 0.00 0.00 0.00 54 1018.6
20260503024019 11 312 0.0 0.0 0.00 0.00 0.00 53 1018.6
20260503023602 11 312 0.0 0.0 0.00 0.00 0.00 53 1018.6
20260503023034 11 312 0.0 0.0 0.00 0.00 0.00 52 1018.5
20260503022510 11 312 0.0 0.0 0.00 0.00 0.00 52 1018.5
20260503022055 11 312 0.0 0.0 0.00 0.00 0.00 52 1018.5
20260503021532 11 312 0.0 0.0 0.00 0.00 0.00 51 1018.5
20260503021004 12 312 0.0 0.0 0.00 0.00 0.00 51 1018.5
20260503020544 12 312 0.0 0.0 0.00 0.00 0.00 49 1018.4
20260503020020 12 312 0.0 0.0 0.00 0.00 0.00 49 1018.3
20260503015601 12 312 0.0 0.0 0.00 0.00 0.00 49 1018.3
20260503015041 12 312 0.0 0.0 0.00 0.00 0.00 47 1018.2
20260503014514 12 312 0.0 0.0 0.00 0.00 0.00 47 1018.2
20260503014057 12 312 0.0 0.0 0.00 0.00 0.00 48 1018.2
20260503013531 13 312 0.0 0.0 0.00 0.00 0.00 44 1018.2
20260503013015 13 312 0.0 0.0 0.00 0.00 0.00 44 1018.2
20260503012548 13 312 0.0 0.0 0.00 0.00 0.00 43 1018.2
20260503012026 13 312 0.0 0.0 0.00 0.00 0.00 43 1018.1
20260503011633 13 312 0.0 0.0 0.00 0.00 0.00 43 1018.1
20260503011040 14 312 0.0 0.0 0.00 0.00 0.00 42 1018.1
20260503010514 14 312 0.0 0.0 0.00 0.00 0.00 41 1018.2
20260503010056 14 312 0.0 0.0 0.00 0.00 0.00 40 1018.1
20260503005530 15 312 0.0 0.0 0.00 0.00 0.00 40 1018.1
20260503005007 15 312 0.0 0.0 0.00 0.00 0.00 40 1018.2
20260503004547 15 312 0.0 0.0 0.00 0.00 0.00 40 1018.2
20260503004023 15 312 0.0 0.0 0.00 0.00 0.00 40 1018.2
20260503003604 15 312 0.0 0.0 0.00 0.00 0.00 39 1018.3
20260503003041 15 312 0.0 0.0 0.00 0.00 0.00 39 1018.2
20260503002514 15 312 0.0 0.0 0.00 0.00 0.00 37 1018.2
20260503002055 15 312 0.0 0.0 0.00 0.00 0.00 38 1018.3
20260503001532 16 312 0.0 0.0 0.00 0.00 0.00 36 1018.1
20260503001008 16 312 0.0 0.0 0.00 0.00 0.00 36 1018.2
20260503000549 16 312 0.0 0.0 0.00 0.00 0.00 36 1018.2
20260503000024 16 312 0.0 0.0 0.00 0.00 0.00 35 1018.2
20260502235501 16 312 0.0 1.6 0.00 0.00 0.00 35 1018.2
20260502235041 16 312 0.0 1.6 0.00 0.00 0.00 34 1018.3
20260502234520 16 46 0.0 1.6 0.00 0.00 0.00 34 1018.3
20260502234059 16 321 0.0 1.6 0.00 0.00 0.00 33 1018.3
20260502233533 16 321 0.0 0.0 0.00 0.00 0.00 35 1018.3
20260502233010 16 321 0.0 3.2 0.00 0.00 0.00 35 1018.4
20260502232552 16 321 0.0 3.2 0.00 0.00 0.00 34 1018.4
20260502232030 16 186 0.0 0.0 0.00 0.00 0.00 34 1018.4
20260502231607 16 186 0.0 0.0 0.00 0.00 0.00 35 1018.4
20260502231055 16 186 0.0 0.0 0.00 0.00 0.00 34 1018.5
20260502230528 16 205 0.0 1.6 0.00 0.00 0.00 34 1018.5
20260502230007 16 205 0.0 1.6 0.00 0.00 0.00 33 1018.6
20260502225542 16 205 0.0 1.6 0.00 0.00 0.00 33 1018.6
20260502225019 16 261 0.0 3.2 0.00 0.00 0.00 32 1018.6
20260502224600 16 4 0.0 3.2 0.00 0.00 0.00 32 1018.6
20260502224036 16 150 0.0 3.2 0.00 0.00 0.00 34 1018.7
20260502223512 16 27 0.0 4.8 0.00 0.00 0.00 31 1018.7
20260502223059 16 333 0.0 4.8 0.00 0.00 0.00 33 1018.7
20260502222528 16 3 0.0 8.0 0.00 0.00 0.00 32 1018.7
20260502222003 16 3 1.6 8.0 0.00 0.00 0.00 31 1018.7
20260502221543 16 25 0.0 4.8 0.00 0.00 0.00 33 1018.7
20260502221020 16 323 0.0 4.8 0.00 0.00 0.00 32 1018.7
20260502220601 16 326 0.0 4.8 0.00 0.00 0.00 34 1018.7
20260502220037 16 29 0.0 4.8 0.00 0.00 0.00 32 1018.8
20260502215517 16 264 0.0 3.2 0.00 0.00 0.00 35 1018.9
20260502215054 16 357 0.0 9.7 0.00 0.00 0.00 33 1019.0
20260502214531 16 357 4.8 9.7 0.00 0.00 0.00 31 1019.0
20260502214007 16 323 0.0 3.2 0.00 0.00 0.00 33 1019.0
20260502213548 16 319 0.0 3.2 0.00 0.00 0.00 33 1019.1
20260502213036 16 256 0.0 3.2 0.00 0.00 0.00 32 1019.0
20260502212605 16 257 0.0 3.2 0.00 0.00 0.00 35 1019.1
20260502212041 16 309 0.0 6.4 0.00 0.00 0.00 35 1019.2
20260502211521 16 354 3.2 6.4 0.00 0.00 0.00 33 1019.1
20260502211059 16 14 0.0 6.4 0.00 0.00 0.00 35 1019.2
20260502210535 16 359 0.0 6.4 0.00 0.00 0.00 35 1019.3
20260502210013 16 320 0.0 6.4 0.00 0.00 0.00 36 1019.5
20260502205552 16 338 0.0 4.8 0.00 0.00 0.00 35 1019.6
20260502205027 16 339 0.0 9.7 0.00 0.00 0.00 36 1019.5
20260502204504 16 355 1.6 9.7 0.00 0.00 0.00 35 1019.5
20260502204044 16 15 0.0 4.8 0.00 0.00 0.00 34 1019.6
20260502203521 16 316 0.0 3.2 0.00 0.00 0.00 36 1019.7
20260502203120 16 316 0.0 3.2 0.00 0.00 0.00 33 1019.7
20260502202538 16 159 0.0 1.6 0.00 0.00 0.00 36 1019.7
20260502202014 16 149 0.0 3.2 0.00 0.00 0.00 36 1019.7
20260502201609 16 149 0.0 3.2 0.00 0.00 0.00 35 1019.7
20260502201033 16 314 0.0 4.8 0.00 0.00 0.00 35 1019.9
20260502200507 16 323 0.0 4.8 0.00 0.00 0.00 33 1019.9
20260502200051 16 259 0.0 4.8 0.00 0.00 0.00 38 1020.0
20260502195522 16 330 0.0 4.8 0.00 0.00 0.00 35 1020.0
20260502195103 16 307 0.0 3.2 0.00 0.00 0.00 37 1020.1
20260502194540 15 167 0.0 4.8 0.00 0.00 0.00 36 1020.0
20260502194016 15 20 1.6 4.8 0.00 0.00 0.00 34 1020.1
20260502193558 15 332 0.0 3.2 0.00 0.00 0.00 37 1020.0
20260502193039 15 5 0.0 4.8 0.00 0.00 0.00 35 1020.1
20260502192511 15 314 0.0 4.8 0.00 0.00 0.00 36 1020.3
20260502192049 15 323 0.0 4.8 0.00 0.00 0.00 35 1020.3
20260502191528 15 308 0.0 4.8 0.00 0.00 0.00 36 1020.3
20260502191002 15 308 1.6 6.4 0.00 0.00 0.00 34 1020.4
20260502190542 15 302 0.0 6.4 0.00 0.00 0.00 34 1020.4
20260502190019 15 257 0.0 3.2 0.00 0.00 0.00 36 1020.5
20260502185559 15 8 0.0 3.2 0.00 0.00 0.00 34 1020.6